| time (UTC) | temp F | wind direction | speed knots | gust knots | rain 1hr in | rain 24hr in | rain mn in | humidity % | barometer mb |
| 20260506012514 | 51 | 263 | 0.9 | 5.2 | 0.00 | 0.00 | 0.00 | 46 | 1007.9 |
| 20260506012012 | 51 | 255 | 1.7 | 5.2 | 0.00 | 0.00 | 0.00 | 46 | 1007.9 |
| 20260506011532 | 51 | 226 | 0.9 | 3.5 | 0.00 | 0.00 | 0.00 | 46 | 1007.8 |
| 20260506011015 | 51 | 221 | 0.0 | 2.6 | 0.00 | 0.00 | 0.00 | 46 | 1007.9 |
| 20260506010515 | 51 | 236 | 0.9 | 5.2 | 0.00 | 0.00 | 0.00 | 45 | 1007.8 |
| 20260506010044 | 51 | 240 | 0.9 | 7.0 | 0.00 | 0.00 | 0.00 | 45 | 1007.8 |
| 20260506005515 | 52 | 255 | 2.6 | 7.0 | 0.00 | 0.00 | 0.00 | 45 | 1007.9 |
| 20260506005014 | 52 | 210 | 2.6 | 6.1 | 0.00 | 0.00 | 0.00 | 44 | 1007.8 |
| 20260506004530 | 52 | 0 | 0.9 | 4.3 | 0.00 | 0.00 | 0.00 | 45 | 1007.8 |
| 20260506004013 | 52 | 261 | 1.7 | 5.2 | 0.00 | 0.00 | 0.00 | 43 | 1007.8 |
| 20260506003513 | 52 | 263 | 0.9 | 6.1 | 0.00 | 0.00 | 0.00 | 43 | 1007.7 |
| 20260506003032 | 52 | 262 | 1.7 | 8.7 | 0.00 | 0.00 | 0.00 | 43 | 1007.6 |
| 20260506002512 | 52 | 247 | 1.7 | 8.7 | 0.00 | 0.00 | 0.00 | 42 | 1007.6 |
| 20260506002013 | 52 | 251 | 3.5 | 11.3 | 0.00 | 0.00 | 0.00 | 42 | 1007.6 |
| 20260506001531 | 52 | 253 | 4.3 | 11.3 | 0.00 | 0.00 | 0.00 | 42 | 1007.6 |
| 20260506001016 | 52 | 262 | 0.9 | 7.0 | 0.00 | 0.00 | 0.00 | 44 | 1007.5 |
| 20260506000515 | 53 | 264 | 1.7 | 7.0 | 0.00 | 0.00 | 0.00 | 43 | 1007.4 |
| 20260506000029 | 53 | 262 | 2.6 | 7.8 | 0.00 | 0.00 | 0.00 | 43 | 1007.4 |
| 20260505235515 | 53 | 259 | 2.6 | 7.8 | 0.00 | 0.00 | 0.00 | 43 | 1007.3 |
| 20260505235014 | 53 | 242 | 2.6 | 6.1 | 0.00 | 0.00 | 0.00 | 43 | 1007.2 |
| 20260505234554 | 53 | 0 | 0.9 | 6.1 | 0.00 | 0.00 | 0.00 | 44 | 1007.2 |
| 20260505234016 | 53 | 269 | 1.7 | 6.1 | 0.00 | 0.00 | 0.00 | 44 | 1007.2 |
| 20260505233514 | 53 | 271 | 1.7 | 6.1 | 0.00 | 0.00 | 0.00 | 45 | 1007.1 |
| 20260505233037 | 53 | 279 | 0.9 | 5.2 | 0.00 | 0.00 | 0.00 | 48 | 1007.1 |
| 20260505232513 | 53 | 246 | 1.7 | 5.2 | 0.00 | 0.00 | 0.00 | 48 | 1007.0 |
| 20260505232013 | 53 | 255 | 2.6 | 6.1 | 0.00 | 0.00 | 0.00 | 49 | 1007.0 |
| 20260505231533 | 53 | 271 | 0.9 | 6.1 | 0.00 | 0.00 | 0.00 | 52 | 1006.9 |
| 20260505231015 | 54 | 228 | 1.7 | 5.2 | 0.00 | 0.00 | 0.00 | 56 | 1007.0 |
| 20260505230515 | 54 | 229 | 2.6 | 5.2 | 0.00 | 0.00 | 0.00 | 57 | 1007.0 |
| 20260505230029 | 54 | 156 | 1.7 | 7.8 | 0.00 | 0.00 | 0.00 | 58 | 1007.1 |
| 20260505225516 | 54 | 213 | 1.7 | 7.8 | 0.00 | 0.00 | 0.00 | 56 | 1007.0 |
| 20260505225016 | 54 | 232 | 1.7 | 7.8 | 0.00 | 0.00 | 0.00 | 57 | 1007.1 |
| 20260505224533 | 54 | 227 | 2.6 | 5.2 | 0.00 | 0.00 | 0.00 | 55 | 1007.2 |
| 20260505224016 | 54 | 245 | 0.9 | 7.0 | 0.00 | 0.00 | 0.00 | 57 | 1007.1 |
| 20260505223523 | 54 | 265 | 1.7 | 7.0 | 0.00 | 0.00 | 0.00 | 53 | 1007.1 |
| 20260505223028 | 54 | 215 | 3.5 | 7.0 | 0.00 | 0.00 | 0.00 | 54 | 1007.1 |
| 20260505222518 | 54 | 0 | 0.9 | 7.0 | 0.00 | 0.00 | 0.00 | 54 | 1007.2 |
| 20260505222012 | 54 | 240 | 2.6 | 7.0 | 0.00 | 0.00 | 0.00 | 53 | 1007.2 |
| 20260505221530 | 54 | 204 | 3.5 | 7.0 | 0.00 | 0.00 | 0.00 | 54 | 1007.2 |
| 20260505221020 | 54 | 231 | 2.6 | 7.0 | 0.00 | 0.00 | 0.00 | 55 | 1007.2 |
| 20260505220515 | 54 | 202 | 2.6 | 10.4 | 0.00 | 0.00 | 0.00 | 54 | 1007.2 |
| 20260505220032 | 54 | 236 | 2.6 | 10.4 | 0.00 | 0.00 | 0.00 | 54 | 1007.3 |
| 20260505215515 | 54 | 253 | 3.5 | 7.8 | 0.00 | 0.00 | 0.00 | 54 | 1007.2 |
| 20260505215014 | 54 | 163 | 2.6 | 7.0 | 0.00 | 0.00 | 0.00 | 54 | 1007.4 |
| 20260505214557 | 54 | 224 | 2.6 | 7.0 | 0.00 | 0.00 | 0.00 | 53 | 1007.3 |
| 20260505214018 | 54 | 271 | 2.6 | 7.8 | 0.00 | 0.00 | 0.00 | 53 | 1007.2 |
| 20260505213514 | 54 | 299 | 1.7 | 9.6 | 0.00 | 0.00 | 0.00 | 53 | 1007.2 |
| 20260505213028 | 54 | 256 | 3.5 | 9.6 | 0.00 | 0.00 | 0.00 | 54 | 1007.1 |
| 20260505212518 | 54 | 240 | 1.7 | 8.7 | 0.00 | 0.00 | 0.00 | 56 | 1007.1 |
| 20260505212015 | 54 | 210 | 2.6 | 7.8 | 0.00 | 0.00 | 0.00 | 54 | 1007.1 |
| 20260505211532 | 54 | 247 | 1.7 | 11.3 | 0.00 | 0.00 | 0.00 | 56 | 1007.2 |
| 20260505211015 | 54 | 241 | 3.5 | 11.3 | 0.00 | 0.00 | 0.00 | 56 | 1007.3 |
| 20260505210514 | 54 | 219 | 3.5 | 10.4 | 0.00 | 0.00 | 0.00 | 59 | 1007.3 |
| 20260505210031 | 54 | 230 | 3.5 | 8.7 | 0.00 | 0.00 | 0.00 | 63 | 1007.3 |
| 20260505205512 | 54 | 223 | 3.5 | 7.8 | 0.00 | 0.00 | 0.00 | 63 | 1007.2 |
| 20260505205015 | 54 | 260 | 2.6 | 7.8 | 0.00 | 0.00 | 0.00 | 63 | 1007.1 |
| 20260505204531 | 54 | 224 | 1.7 | 9.6 | 0.00 | 0.00 | 0.00 | 63 | 1007.1 |
| 20260505204019 | 54 | 217 | 2.6 | 9.6 | 0.00 | 0.00 | 0.00 | 64 | 1007.0 |
| 20260505203516 | 54 | 199 | 1.7 | 9.6 | 0.00 | 0.00 | 0.00 | 64 | 1007.2 |
| 20260505203036 | 54 | 235 | 1.7 | 9.6 | 0.00 | 0.00 | 0.00 | 62 | 1007.1 |
| 20260505202515 | 54 | 233 | 2.6 | 9.6 | 0.00 | 0.00 | 0.00 | 62 | 1007.2 |
| 20260505202013 | 54 | 219 | 2.6 | 7.8 | 0.00 | 0.00 | 0.00 | 61 | 1007.1 |
| 20260505201536 | 54 | 207 | 1.7 | 7.8 | 0.00 | 0.00 | 0.00 | 61 | 1007.0 |
| 20260505201013 | 54 | 213 | 2.6 | 7.8 | 0.00 | 0.00 | 0.00 | 61 | 1007.0 |
| 20260505200516 | 54 | 157 | 2.6 | 7.0 | 0.00 | 0.00 | 0.00 | 60 | 1007.2 |
| 20260505200032 | 54 | 244 | 1.7 | 7.0 | 0.00 | 0.00 | 0.00 | 60 | 1007.1 |
| 20260505195514 | 54 | 276 | 2.6 | 8.7 | 0.00 | 0.00 | 0.00 | 61 | 1007.2 |
| 20260505195013 | 54 | 254 | 0.9 | 9.6 | 0.00 | 0.00 | 0.00 | 59 | 1007.2 |
| 20260505194538 | 54 | 240 | 2.6 | 12.2 | 0.00 | 0.00 | 0.00 | 58 | 1007.3 |
| 20260505194014 | 54 | 193 | 6.1 | 12.2 | 0.00 | 0.00 | 0.00 | 59 | 1007.4 |
| 20260505193515 | 54 | 224 | 3.5 | 11.3 | 0.00 | 0.00 | 0.00 | 60 | 1007.3 |
| 20260505193031 | 54 | 215 | 4.3 | 11.3 | 0.00 | 0.00 | 0.00 | 61 | 1007.4 |
| 20260505192514 | 54 | 220 | 1.7 | 7.8 | 0.00 | 0.00 | 0.00 | 62 | 1007.4 |
| 20260505192015 | 54 | 237 | 3.5 | 7.0 | 0.00 | 0.00 | 0.00 | 61 | 1007.5 |
| 20260505191531 | 55 | 246 | 0.0 | 7.0 | 0.00 | 0.00 | 0.00 | 61 | 1007.4 |
| 20260505191014 | 54 | 262 | 2.6 | 11.3 | 0.00 | 0.00 | 0.00 | 60 | 1007.4 |
| 20260505190515 | 54 | 267 | 2.6 | 11.3 | 0.00 | 0.00 | 0.00 | 61 | 1007.4 |
| 20260505190028 | 54 | 325 | 2.6 | 7.8 | 0.00 | 0.00 | 0.00 | 59 | 1007.4 |
| 20260505185515 | 55 | 217 | 1.7 | 7.8 | 0.00 | 0.00 | 0.00 | 60 | 1007.4 |
| 20260505185015 | 55 | 203 | 2.6 | 7.8 | 0.00 | 0.00 | 0.00 | 59 | 1007.4 |
| 20260505184531 | 55 | 323 | 1.7 | 7.8 | 0.00 | 0.00 | 0.00 | 59 | 1007.4 |
| 20260505184012 | 55 | 230 | 1.7 | 6.1 | 0.00 | 0.00 | 0.00 | 60 | 1007.3 |
| 20260505183517 | 55 | 260 | 0.9 | 10.4 | 0.00 | 0.00 | 0.00 | 60 | 1007.2 |
| 20260505183033 | 54 | 223 | 5.2 | 12.2 | 0.00 | 0.00 | 0.00 | 60 | 1007.1 |
| 20260505182519 | 54 | 269 | 4.3 | 12.2 | 0.00 | 0.00 | 0.00 | 60 | 1007.0 |
| 20260505182015 | 54 | 268 | 4.3 | 12.2 | 0.00 | 0.00 | 0.00 | 60 | 1007.0 |
| 20260505181532 | 54 | 221 | 3.5 | 15.6 | 0.00 | 0.00 | 0.00 | 63 | 1006.8 |
| 20260505181016 | 54 | 274 | 6.1 | 15.6 | 0.00 | 0.00 | 0.00 | 62 | 1006.8 |
| 20260505180515 | 54 | 232 | 2.6 | 7.8 | 0.00 | 0.00 | 0.00 | 64 | 1006.8 |
| 20260505180054 | 54 | 261 | 2.6 | 7.8 | 0.00 | 0.00 | 0.00 | 65 | 1006.8 |
| 20260505175517 | 53 | 236 | 2.6 | 7.8 | 0.00 | 0.00 | 0.00 | 68 | 1006.7 |
| 20260505175018 | 53 | 216 | 4.3 | 7.8 | 0.00 | 0.00 | 0.00 | 68 | 1006.7 |
| 20260505174550 | 53 | 221 | 2.6 | 10.4 | 0.00 | 0.00 | 0.00 | 69 | 1006.6 |
| 20260505174013 | 53 | 271 | 4.3 | 10.4 | 0.00 | 0.00 | 0.00 | 68 | 1006.6 |
| 20260505173513 | 53 | 233 | 4.3 | 10.4 | 0.00 | 0.00 | 0.00 | 68 | 1006.8 |
| 20260505173034 | 53 | 248 | 3.5 | 8.7 | 0.00 | 0.00 | 0.00 | 71 | 1006.8 |
| 20260505172514 | 53 | 229 | 3.5 | 10.4 | 0.00 | 0.00 | 0.00 | 70 | 1006.5 |
| 20260505172015 | 53 | 269 | 3.5 | 10.4 | 0.00 | 0.00 | 0.00 | 71 | 1006.6 |
| 20260505171532 | 53 | 219 | 4.3 | 10.4 | 0.00 | 0.00 | 0.00 | 71 | 1006.6 |
| 20260505171014 | 52 | 233 | 3.5 | 10.4 | 0.00 | 0.00 | 0.00 | 72 | 1006.5 |
| 20260505170513 | 52 | 229 | 3.5 | 11.3 | 0.00 | 0.00 | 0.00 | 72 | 1006.5 |
| 20260505170031 | 52 | 251 | 4.3 | 11.3 | 0.00 | 0.00 | 0.00 | 74 | 1006.6 |
| 20260505165518 | 52 | 245 | 2.6 | 6.1 | 0.00 | 0.00 | 0.00 | 75 | 1006.8 |
| 20260505165013 | 51 | 215 | 2.6 | 12.2 | 0.00 | 0.00 | 0.00 | 74 | 1006.8 |
| 20260505164530 | 51 | 198 | 4.3 | 12.2 | 0.00 | 0.00 | 0.00 | 76 | 1006.8 |
| 20260505164014 | 51 | 233 | 3.5 | 7.0 | 0.00 | 0.00 | 0.00 | 77 | 1006.8 |
| 20260505163512 | 51 | 223 | 0.9 | 3.5 | 0.00 | 0.00 | 0.00 | 79 | 1006.7 |
| 20260505163031 | 50 | 215 | 0.0 | 3.5 | 0.00 | 0.00 | 0.00 | 79 | 1006.6 |
| 20260505162515 | 50 | 216 | 0.9 | 3.5 | 0.00 | 0.00 | 0.00 | 78 | 1006.7 |
| 20260505162016 | 50 | 210 | 0.9 | 2.6 | 0.00 | 0.00 | 0.00 | 78 | 1006.8 |
| 20260505161529 | 50 | 163 | 0.0 | 1.7 | 0.00 | 0.00 | 0.00 | 78 | 1006.9 |
| 20260505161015 | 50 | 0 | 0.0 | 1.7 | 0.00 | 0.00 | 0.00 | 78 | 1006.8 |
| 20260505160514 | 50 | 250 | 0.0 | 1.7 | 0.00 | 0.00 | 0.00 | 78 | 1006.8 |
| 20260505153033 | 50 | 346 | 1.7 | 6.1 | 0.00 | 0.00 | 0.00 | 72 | 1007.0 |
| 20260505152516 | 51 | 294 | 1.7 | 5.2 | 0.00 | 0.00 | 0.00 | 72 | 1007.0 |
| 20260505152015 | 51 | 340 | 1.7 | 4.3 | 0.00 | 0.00 | 0.00 | 70 | 1006.8 |
| 20260505151534 | 51 | 300 | 1.7 | 3.5 | 0.00 | 0.00 | 0.00 | 71 | 1006.5 |
| 20260505151013 | 51 | 306 | 0.9 | 3.5 | 0.00 | 0.00 | 0.00 | 71 | 1006.4 |
| 20260505150517 | 51 | 300 | 0.9 | 2.6 | 0.00 | 0.00 | 0.00 | 71 | 1006.6 |
| 20260505140516 | 52 | 326 | 0.9 | 6.1 | 0.00 | 0.00 | 0.00 | 72 | 1005.9 |
| 20260505125015 | 52 | 344 | 3.5 | 7.8 | 0.00 | 0.00 | 0.00 | 74 | 1004.2 |
| 20260505124537 | 52 | 316 | 2.6 | 7.8 | 0.00 | 0.00 | 0.00 | 76 | 1004.2 |
| 20260505124014 | 52 | 345 | 3.5 | 7.8 | 0.00 | 0.00 | 0.00 | 76 | 1004.0 |
| 20260505123515 | 52 | 333 | 3.5 | 7.8 | 0.00 | 0.00 | 0.00 | 76 | 1003.9 |
| 20260505123031 | 52 | 358 | 4.3 | 7.8 | 0.00 | 0.00 | 0.00 | 77 | 1003.8 |
| 20260505122514 | 52 | 43 | 5.2 | 8.7 | 0.00 | 0.00 | 0.00 | 78 | 1003.7 |
| 20260505122017 | 52 | 9 | 3.5 | 8.7 | 0.00 | 0.00 | 0.00 | 78 | 1003.7 |
| 20260505121533 | 53 | 6 | 3.5 | 7.8 | 0.00 | 0.00 | 0.00 | 78 | 1003.6 |
| 20260505121014 | 53 | 17 | 3.5 | 7.8 | 0.00 | 0.00 | 0.00 | 78 | 1003.7 |
| 20260505120513 | 54 | 356 | 1.7 | 6.1 | 0.00 | 0.00 | 0.00 | 79 | 1003.7 |
| 20260505120033 | 55 | 349 | 2.6 | 8.7 | 0.00 | 0.00 | 0.00 | 80 | 1003.4 |
| 20260505115513 | 55 | 312 | 3.5 | 11.3 | 0.00 | 0.00 | 0.00 | 78 | 1003.4 |
| 20260505115016 | 56 | 347 | 2.6 | 11.3 | 0.00 | 0.00 | 0.00 | 77 | 1003.3 |
| 20260505114530 | 56 | 271 | 4.3 | 11.3 | 0.00 | 0.00 | 0.00 | 75 | 1003.2 |
| 20260505114018 | 56 | 266 | 2.6 | 9.6 | 0.00 | 0.00 | 0.00 | 76 | 1003.2 |
| 20260505113516 | 56 | 264 | 4.3 | 9.6 | 0.00 | 0.00 | 0.00 | 76 | 1002.9 |
| 20260505113029 | 56 | 259 | 1.7 | 9.6 | 0.00 | 0.00 | 0.00 | 77 | 1002.8 |
| 20260505112514 | 56 | 271 | 4.3 | 9.6 | 0.00 | 0.00 | 0.00 | 78 | 1002.7 |
| 20260505112015 | 56 | 260 | 0.9 | 7.0 | 0.00 | 0.00 | 0.00 | 79 | 1002.5 |
| 20260505111528 | 56 | 245 | 2.6 | 7.8 | 0.00 | 0.00 | 0.00 | 80 | 1002.5 |
| 20260505111013 | 56 | 264 | 2.6 | 8.7 | 0.00 | 0.00 | 0.00 | 80 | 1002.2 |
| 20260505110514 | 56 | 258 | 2.6 | 8.7 | 0.00 | 0.00 | 0.00 | 82 | 1002.2 |
| 20260505102014 | 56 | 221 | 5.2 | 10.4 | 0.00 | 0.00 | 0.00 | 83 | 1001.2 |
| 20260505101534 | 56 | 233 | 4.3 | 7.8 | 0.00 | 0.00 | 0.00 | 83 | 1001.1 |
| 20260505101013 | 57 | 220 | 2.6 | 7.8 | 0.00 | 0.00 | 0.00 | 83 | 1001.0 |
| 20260505100513 | 57 | 215 | 2.6 | 8.7 | 0.00 | 0.00 | 0.00 | 83 | 1000.8 |
| 20260505100032 | 57 | 207 | 3.5 | 10.4 | 0.00 | 0.00 | 0.00 | 83 | 1001.0 |
| 20260505095514 | 57 | 217 | 5.2 | 10.4 | 0.00 | 0.00 | 0.00 | 83 | 1001.0 |
| 20260505095016 | 57 | 228 | 2.6 | 9.6 | 0.00 | 0.00 | 0.00 | 83 | 1000.9 |
| 20260505094532 | 57 | 225 | 5.2 | 9.6 | 0.00 | 0.00 | 0.00 | 82 | 1000.9 |
| 20260505094014 | 58 | 233 | 3.5 | 11.3 | 0.00 | 0.00 | 0.00 | 82 | 1000.8 |
| 20260505093517 | 58 | 223 | 5.2 | 11.3 | 0.00 | 0.00 | 0.00 | 81 | 1000.8 |
| 20260505093035 | 58 | 222 | 5.2 | 12.2 | 0.00 | 0.00 | 0.00 | 81 | 1000.8 |
| 20260505092513 | 58 | 217 | 6.1 | 12.2 | 0.00 | 0.00 | 0.00 | 81 | 1000.8 |
| 20260505092013 | 58 | 232 | 5.2 | 12.2 | 0.00 | 0.00 | 0.00 | 80 | 1000.7 |
| 20260505091530 | 58 | 211 | 6.1 | 12.2 | 0.00 | 0.00 | 0.00 | 80 | 1000.8 |
| 20260505091019 | 58 | 217 | 3.5 | 10.4 | 0.00 | 0.00 | 0.00 | 79 | 1000.5 |
| 20260505090515 | 59 | 237 | 4.3 | 10.4 | 0.00 | 0.00 | 0.00 | 78 | 1000.6 |
| 20260505090031 | 59 | 211 | 5.2 | 12.2 | 0.00 | 0.00 | 0.00 | 77 | 1000.5 |
| 20260505085516 | 59 | 218 | 3.5 | 12.2 | 0.00 | 0.00 | 0.00 | 77 | 1000.7 |
| 20260505085014 | 59 | 226 | 4.3 | 11.3 | 0.00 | 0.00 | 0.00 | 76 | 1000.5 |
| 20260505084531 | 59 | 212 | 4.3 | 11.3 | 0.00 | 0.00 | 0.00 | 75 | 1000.4 |
| 20260505084014 | 60 | 219 | 3.5 | 13.0 | 0.00 | 0.00 | 0.00 | 74 | 1000.3 |
| 20260505083515 | 60 | 236 | 4.3 | 13.9 | 0.00 | 0.00 | 0.00 | 74 | 1000.1 |
| 20260505083033 | 60 | 213 | 5.2 | 13.9 | 0.00 | 0.00 | 0.00 | 73 | 1000.1 |
| 20260505082513 | 60 | 233 | 5.2 | 13.0 | 0.00 | 0.00 | 0.00 | 73 | 1000.1 |
| 20260505082015 | 60 | 226 | 6.1 | 12.2 | 0.00 | 0.00 | 0.00 | 73 | 1000.0 |
| 20260505081536 | 60 | 227 | 4.3 | 12.2 | 0.00 | 0.00 | 0.00 | 73 | 1000.0 |
| 20260505081016 | 60 | 251 | 4.3 | 13.9 | 0.00 | 0.00 | 0.00 | 73 | 1000.1 |
| 20260505080515 | 60 | 233 | 4.3 | 13.9 | 0.00 | 0.00 | 0.00 | 72 | 1000.1 |
| 20260505080032 | 60 | 236 | 4.3 | 12.2 | 0.00 | 0.00 | 0.00 | 72 | 1000.0 |
| 20260505075515 | 60 | 219 | 5.2 | 13.0 | 0.00 | 0.00 | 0.00 | 72 | 1000.0 |
| 20260505075017 | 60 | 243 | 3.5 | 13.0 | 0.00 | 0.00 | 0.00 | 72 | 999.8 |
| 20260505074530 | 60 | 195 | 5.2 | 12.2 | 0.00 | 0.00 | 0.00 | 72 | 999.8 |
| 20260505074014 | 60 | 191 | 4.3 | 9.6 | 0.00 | 0.00 | 0.00 | 72 | 999.4 |
| 20260505073514 | 60 | 213 | 2.6 | 9.6 | 0.00 | 0.00 | 0.00 | 73 | 999.4 |
| 20260505073031 | 60 | 212 | 3.5 | 7.8 | 0.00 | 0.00 | 0.00 | 73 | 999.5 |
| 20260505072521 | 60 | 196 | 0.9 | 7.0 | 0.00 | 0.00 | 0.00 | 74 | 999.4 |
| 20260505072014 | 60 | 231 | 2.6 | 7.0 | 0.00 | 0.00 | 0.00 | 74 | 999.3 |
| 20260505071536 | 60 | 176 | 2.6 | 6.1 | 0.00 | 0.00 | 0.00 | 74 | 999.3 |
| 20260505071013 | 60 | 207 | 1.7 | 7.0 | 0.00 | 0.00 | 0.00 | 74 | 999.4 |
| 20260505070516 | 60 | 232 | 1.7 | 7.0 | 0.00 | 0.00 | 0.00 | 75 | 999.4 |
| 20260505070038 | 60 | 217 | 2.6 | 10.4 | 0.00 | 0.00 | 0.00 | 74 | 999.6 |
| 20260505065518 | 60 | 194 | 3.5 | 10.4 | 0.00 | 0.00 | 0.00 | 73 | 999.6 |
| 20260505065012 | 61 | 258 | 4.3 | 9.6 | 0.00 | 0.00 | 0.00 | 72 | 999.9 |
| 20260505064532 | 60 | 259 | 1.7 | 9.6 | 0.00 | 0.00 | 0.00 | 73 | 999.7 |
| 20260505064015 | 60 | 192 | 2.6 | 7.0 | 0.00 | 0.00 | 0.00 | 73 | 999.4 |
| 20260505063513 | 60 | 209 | 0.9 | 7.0 | 0.00 | 0.00 | 0.00 | 73 | 999.6 |
| 20260505063029 | 60 | 209 | 2.6 | 9.6 | 0.00 | 0.00 | 0.00 | 73 | 999.8 |
| 20260505062521 | 61 | 228 | 1.7 | 14.8 | 0.00 | 0.00 | 0.00 | 74 | 999.9 |
| 20260505062015 | 61 | 176 | 5.2 | 14.8 | 0.00 | 0.00 | 0.00 | 73 | 1000.0 |
| 20260505061602 | 61 | 214 | 3.5 | 13.0 | 0.00 | 0.00 | 0.00 | 73 | 1000.1 |
| 20260505061012 | 61 | 179 | 5.2 | 13.0 | 0.00 | 0.00 | 0.00 | 72 | 1000.2 |
| 20260505060519 | 61 | 210 | 4.3 | 13.0 | 0.00 | 0.00 | 0.00 | 71 | 1000.3 |
| 20260505060033 | 62 | 198 | 5.2 | 13.0 | 0.00 | 0.00 | 0.00 | 70 | 1000.2 |
| 20260505055520 | 62 | 229 | 3.5 | 11.3 | 0.00 | 0.00 | 0.00 | 69 | 999.9 |
| 20260505055014 | 62 | 196 | 4.3 | 11.3 | 0.00 | 0.00 | 0.00 | 69 | 999.9 |
| 20260505054531 | 62 | 173 | 2.6 | 10.4 | 0.00 | 0.00 | 0.00 | 69 | 1000.0 |
| 20260505054014 | 63 | 219 | 3.5 | 11.3 | 0.00 | 0.00 | 0.00 | 68 | 1000.0 |
| 20260505053514 | 63 | 213 | 6.1 | 11.3 | 0.00 | 0.00 | 0.00 | 66 | 1000.0 |
| 20260505053039 | 63 | 199 | 4.3 | 10.4 | 0.00 | 0.00 | 0.00 | 66 | 1000.0 |
| 20260505052516 | 64 | 191 | 4.3 | 13.9 | 0.00 | 0.00 | 0.00 | 65 | 999.9 |
| 20260505052013 | 64 | 210 | 5.2 | 13.9 | 0.00 | 0.00 | 0.00 | 65 | 1000.0 |
| 20260505051553 | 64 | 167 | 6.1 | 12.2 | 0.00 | 0.00 | 0.00 | 65 | 999.8 |
| 20260505051016 | 64 | 224 | 3.5 | 11.3 | 0.00 | 0.00 | 0.00 | 67 | 999.8 |
| 20260505050516 | 65 | 164 | 4.3 | 13.9 | 0.00 | 0.00 | 0.00 | 67 | 1000.1 |
| 20260505041533 | 64 | 190 | 5.2 | 13.9 | 0.00 | 0.00 | 0.00 | 69 | 999.4 |
| 20260505041014 | 64 | 203 | 5.2 | 11.3 | 0.00 | 0.00 | 0.00 | 70 | 999.5 |
| 20260505040515 | 64 | 171 | 5.2 | 11.3 | 0.00 | 0.00 | 0.00 | 70 | 999.6 |
| 20260505040033 | 64 | 184 | 5.2 | 12.2 | 0.00 | 0.00 | 0.00 | 70 | 999.6 |
| 20260505035515 | 63 | 203 | 4.3 | 12.2 | 0.00 | 0.00 | 0.00 | 71 | 999.6 |
| 20260505035015 | 63 | 194 | 7.0 | 12.2 | 0.00 | 0.00 | 0.00 | 71 | 999.7 |
| 20260505034532 | 63 | 197 | 4.3 | 10.4 | 0.00 | 0.00 | 0.00 | 71 | 999.7 |
| 20260505034016 | 63 | 202 | 4.3 | 10.4 | 0.00 | 0.00 | 0.00 | 72 | 999.6 |
| 20260505033516 | 63 | 172 | 4.3 | 10.4 | 0.00 | 0.00 | 0.00 | 72 | 999.7 |
| 20260505033032 | 63 | 231 | 3.5 | 11.3 | 0.00 | 0.00 | 0.00 | 73 | 999.6 |
| 20260505032515 | 63 | 207 | 4.3 | 11.3 | 0.00 | 0.00 | 0.00 | 73 | 999.6 |
| 20260505032015 | 62 | 224 | 3.5 | 7.8 | 0.00 | 0.00 | 0.00 | 73 | 999.7 |
| 20260505031531 | 62 | 198 | 3.5 | 9.6 | 0.00 | 0.00 | 0.00 | 73 | 999.8 |
| 20260505031015 | 63 | 200 | 3.5 | 9.6 | 0.00 | 0.00 | 0.00 | 74 | 1000.0 |
| 20260505030515 | 63 | 199 | 2.6 | 8.7 | 0.00 | 0.00 | 0.00 | 74 | 999.9 |
| 20260505030032 | 63 | 193 | 4.3 | 8.7 | 0.00 | 0.00 | 0.00 | 74 | 1000.0 |
| 20260505025516 | 63 | 195 | 3.5 | 8.7 | 0.00 | 0.00 | 0.00 | 74 | 1000.1 |
| 20260505025014 | 63 | 205 | 3.5 | 8.7 | 0.00 | 0.00 | 0.00 | 74 | 1000.1 |
| 20260505024532 | 63 | 214 | 3.5 | 10.4 | 0.00 | 0.00 | 0.00 | 74 | 1000.2 |
| 20260505024012 | 63 | 212 | 4.3 | 10.4 | 0.00 | 0.00 | 0.00 | 74 | 1000.1 |
| 20260505023516 | 62 | 217 | 4.3 | 11.3 | 0.00 | 0.00 | 0.00 | 74 | 1000.1 |
| 20260505023030 | 62 | 206 | 3.5 | 11.3 | 0.00 | 0.00 | 0.00 | 75 | 1000.0 |
| 20260505022516 | 62 | 207 | 4.3 | 10.4 | 0.00 | 0.00 | 0.00 | 75 | 1000.1 |
| 20260505022013 | 62 | 178 | 2.6 | 7.8 | 0.00 | 0.00 | 0.00 | 75 | 1000.0 |
| 20260505021530 | 62 | 172 | 2.6 | 6.1 | 0.00 | 0.00 | 0.00 | 76 | 999.9 |
| 20260505021015 | 62 | 218 | 3.5 | 7.8 | 0.00 | 0.00 | 0.00 | 75 | 1000.0 |
| 20260505020515 | 62 | 184 | 2.6 | 7.8 | 0.00 | 0.00 | 0.00 | 76 | 1000.1 |
| 20260505020030 | 62 | 179 | 2.6 | 7.8 | 0.00 | 0.00 | 0.00 | 75 | 1000.0 |
| 20260505015514 | 62 | 201 | 2.6 | 8.7 | 0.00 | 0.00 | 0.00 | 75 | 1000.0 |
| 20260505015014 | 62 | 214 | 3.5 | 8.7 | 0.00 | 0.00 | 0.00 | 75 | 999.9 |
| 20260505014532 | 62 | 198 | 2.6 | 8.7 | 0.00 | 0.00 | 0.00 | 75 | 1000.0 |
| 20260505014019 | 62 | 225 | 3.5 | 8.7 | 0.00 | 0.00 | 0.00 | 75 | 1000.1 |
| 20260505013512 | 62 | 187 | 3.5 | 8.7 | 0.00 | 0.00 | 0.00 | 75 | 999.9 |
| 20260505013031 | 62 | 170 | 3.5 | 8.7 | 0.00 | 0.00 | 0.00 | 75 | 1000.0 |